#timestamp,LO_Frequency,Hit,StdDev 
1556359215.5,286046998.1,P
1556359235.4,286047000.6,N
1556359255.2,286047001.1,N
1556359275.1,286047000.9,N
1556359276.0,286047000.9,N
1556359295.8,286046998.1,N
1556359315.6,286046998.5,N
1556359335.5,286047001.0,N
1556359355.3,286046998.6,N
1556359375.2,286046998.6,N
1556359395.9,286046998.2,N
1556359415.7,286047000.8,N
1556359435.6,286046998.6,N
1556359455.4,286046998.6,N
1556359475.2,286047000.7,N
1556359495.1,286047001.0,N
1556359496.0,286047001.0,N
1556359515.8,286047000.8,N
1556359535.7,286046998.5,N
1556359555.5,286046998.5,N
1556359575.3,286046998.5,N
1556359595.2,286046998.6,N
1556359615.0,286046998.6,N
1556359615.9,286046998.6,N
1556359635.8,286046998.5,N
1556359655.6,286046998.5,N
1556359675.4,286047001.2,N
1556359695.3,286046998.1,N
1556359715.1,286047001.2,N
1556359735.8,286047000.8,N
1556359755.7,286047000.4,N
1556359775.5,286047000.5,N
1556359795.4,286047000.4,N
1556359815.2,286047000.4,N
1556359835.0,286047000.4,N
1556359835.9,286047000.4,N
1556359855.8,286047000.5,N
1556359875.6,286047000.4,N
1556359895.4,286047001.2,N
1556359915.3,286047001.2,N
1556359935.1,286047000.8,N
1556359955.9,286047001.0,N
1556359975.7,286047000.3,N
1556359995.5,286047001.0,N
1556360015.4,286047000.7,N
1556360035.2,286047000.9,N
1556360055.1,286047001.0,N
1556360056.0,286047001.0,N
1556360075.8,286047000.8,N
1556360095.6,286047001.1,N
1556360115.5,286047000.8,N
1556360135.3,286047001.2,N
1556360155.1,286047001.1,N
1556360175.9,286046998.3,N
1556360195.7,286046998.1,N
1556360215.6,286046998.1,N
1556360235.4,286047001.2,N
1556360255.2,286046998.2,N
1556360275.1,286046998.9,N
1556360276.0,286046998.9,N
1556360295.8,286046998.6,N
1556360315.7,286046998.5,N
1556360335.5,286046998.6,N
1556360355.3,286046998.6,N
1556360375.2,286046998.5,N
1556360395.0,286046998.7,N
1556360395.9,286046998.7,N
1556360415.7,286046998.1,N
1556360435.6,286046998.4,N
1556360455.4,286046998.2,N
1556360475.3,286046998.2,N
1556360495.1,286046998.1,N
1556360496.0,286046998.1,N
1556360515.8,286046998.6,N
1556360535.7,286046998.5,N
1556360555.5,286046998.2,N
1556360575.4,286046998.2,N
1556360595.2,286046998.1,N
1556360615.0,286046998.1,N
1556360615.9,286046998.1,N
1556360635.8,286046998.5,N
1556360655.6,286046998.3,N
1556360675.4,286046998.3,N
1556360695.3,286046998.5,N
1556360715.1,286046998.6,N
1556360735.9,286046998.5,N
1556360755.7,286046998.8,N
1556360775.5,286046998.1,Y
1556360795.4,286046999.7,P
1556360815.2,286046999.7,N
1556360835.1,286046999.7,N
1556360836.0,286046999.7,N
1556360855.8,286047002.4,Y
1556360875.6,286047002.3,P
1556360895.5,286047002.1,N
1556360915.3,286047002.7,N
1556360935.2,286047002.7,N
1556360955.9,286047002.4,N
1556360975.7,286047002.1,N
1556360995.6,286047002.8,N
1556361015.4,286047002.2,N
1556361035.2,286047002.1,N
1556361055.1,286047002.7,N
1556361056.0,286047002.7,N
1556361075.8,286047002.2,N
1556361095.7,286047002.5,N
1556361115.5,286047002.8,Y
1556361135.3,286046998.4,P
1556361155.2,286046998.5,N
1556361175.0,286046999.3,N
1556361175.9,286046999.3,N
1556361195.8,286046998.5,N
1556361215.6,286046998.8,N
1556361235.4,286046999.0,N
1556361255.3,286046998.8,N
1556361275.1,286046998.7,N
1556361295.9,286046998.2,N
1556361315.7,286046998.4,N
1556361335.5,286046998.6,N
1556361355.4,286046998.3,N
1556361375.2,286046998.3,N
1556361395.0,286046998.5,N
1556361395.9,286046998.5,N
1556361415.8,286046998.2,N
1556361435.6,286046998.5,N
1556361455.5,286046998.3,N
1556361475.3,286046998.4,N
1556361495.1,286046998.3,N
1556361515.9,286046998.4,N
1556361535.7,286046998.3,N
1556361555.5,286046998.4,N
1556361575.4,286046998.3,N
1556361595.2,286046998.8,N
1556361615.1,286046998.7,N
1556361616.0,286046998.7,N
1556361635.8,286046998.7,N
1556361655.6,286047001.2,N
1556361675.5,286046998.3,Y
1556361695.3,286046999.8,P
1556361715.2,286047002.8,P
1556361735.9,286047000.3,N
1556361755.7,286047000.5,N
1556361775.6,286046999.9,N
1556361795.4,286047000.3,N
1556361815.2,286046999.9,N
1556361835.1,286046999.9,N
1556361836.0,286046999.9,N
1556361855.8,286047000.3,N
1556361875.7,286046999.7,N
1556361895.5,286046999.9,N
1556361915.3,286046999.9,N
1556361935.2,286047002.3,N
1556361955.0,286047000.1,N
1556361955.9,286047000.1,N
1556361975.8,286046999.7,N
1556361995.6,286047002.8,Y
1556362015.4,286046999.8,P
1556362035.3,286047000.2,N
1556362055.1,286047000.0,N
1556362075.8,286047000.0,N
1556362095.7,286047000.0,N
1556362115.5,286047000.0,N
1556362135.4,286047000.0,N
1556362155.2,286047000.3,N
1556362175.0,286047000.0,N
1556362175.9,286047000.0,N
1556362195.8,286047000.3,N
1556362215.6,286047000.3,N
1556362235.4,286047000.3,N
1556362255.3,286046999.7,N
1556362275.1,286047000.3,N
1556362295.9,286047000.4,N
1556362315.7,286046999.7,N
1556362335.5,286047000.4,N
1556362355.4,286047000.0,N
1556362375.2,286047000.0,N
1556362395.0,286046999.8,N
1556362395.9,286046999.8,N
1556362415.8,286047000.5,N
1556362435.6,286047000.4,N
1556362455.5,286047000.1,N
1556362475.3,286046999.9,N
1556362495.1,286046999.9,N
1556362515.9,286047000.0,N
1556362535.7,286047000.6,N
1556362555.5,286046999.9,N
1556362575.4,286047000.7,N
1556362595.2,286047000.7,N
1556362615.1,286047001.0,Y
1556362616.0,286047001.0,P
1556362635.8,286047000.4,N
1556362655.6,286047000.7,N
1556362675.5,286047000.4,N
1556362695.3,286047000.3,N
1556362715.2,286047000.5,N
1556362735.9,286047001.0,Y
1556362755.7,286046998.9,P
1556362775.6,286046998.3,N
1556362795.4,286046998.6,N
